owner,sensor,date,latitude,longitude,air_pressure(mBar),qcFlag 
WAVCIS,ioos:station:WAVCIS:CSI16:1,2011-08-01T00:00:00Z,29.4012,-89.0355,1013.98,11111222 
WAVCIS,ioos:station:WAVCIS:CSI16:1,2011-08-01T01:00:00Z,29.4012,-89.0355,1014.52,11111222 
WAVCIS,ioos:station:WAVCIS:CSI16:1,2011-08-01T02:00:00Z,29.4012,-89.0355,1014.78,11111222 
WAVCIS,ioos:station:WAVCIS:CSI16:1,2011-08-01T03:00:00Z,29.4012,-89.0355,1014.91,11111222 
WAVCIS,ioos:station:WAVCIS:CSI16:1,2011-08-01T04:00:00Z,29.4012,-89.0355,1014.47,11111222 
WAVCIS,ioos:station:WAVCIS:CSI16:1,2011-08-01T05:00:00Z,29.4012,-89.0355,1014.32,11111222 
WAVCIS,ioos:station:WAVCIS:CSI16:1,2011-08-01T06:00:00Z,29.4012,-89.0355,1014.56,11111222 
WAVCIS,ioos:station:WAVCIS:CSI16:1,2011-08-01T07:00:00Z,29.4012,-89.0355,1014.04,11111222 
WAVCIS,ioos:station:WAVCIS:CSI16:1,2011-08-01T08:00:00Z,29.4012,-89.0355,1013.95,11111222 
WAVCIS,ioos:station:WAVCIS:CSI16:1,2011-08-01T09:00:00Z,29.4012,-89.0355,1013.74,11111222 
WAVCIS,ioos:station:WAVCIS:CSI16:1,2011-08-01T10:00:00Z,29.4012,-89.0355,1013.6,11111222 
WAVCIS,ioos:station:WAVCIS:CSI16:1,2011-08-01T11:00:00Z,29.4012,-89.0355,1013.74,11111222 
WAVCIS,ioos:station:WAVCIS:CSI16:1,2011-08-01T12:00:00Z,29.4012,-89.0355,1013.93,11111222 
WAVCIS,ioos:station:WAVCIS:CSI16:1,2011-08-01T13:00:00Z,29.4012,-89.0355,1014.49,11111222 
WAVCIS,ioos:station:WAVCIS:CSI16:1,2011-08-01T14:00:00Z,29.4012,-89.0355,1014.5,11111222 
WAVCIS,ioos:station:WAVCIS:CSI16:1,2011-08-01T15:00:00Z,29.4012,-89.0355,1014.91,11111222 
WAVCIS,ioos:station:WAVCIS:CSI16:1,2011-08-01T16:00:00Z,29.4012,-89.0355,1015.04,11111222 
WAVCIS,ioos:station:WAVCIS:CSI16:1,2011-08-01T17:00:00Z,29.4012,-89.0355,1015.12,11111222 
WAVCIS,ioos:station:WAVCIS:CSI16:1,2011-08-01T18:00:00Z,29.4012,-89.0355,1015.13,11111222 
WAVCIS,ioos:station:WAVCIS:CSI16:1,2011-08-01T19:00:00Z,29.4012,-89.0355,1014.44,11111222 
WAVCIS,ioos:station:WAVCIS:CSI16:1,2011-08-01T20:00:00Z,29.4012,-89.0355,1013.27,11111222 
WAVCIS,ioos:station:WAVCIS:CSI16:1,2011-08-01T21:00:00Z,29.4012,-89.0355,1012.84,11111222 
WAVCIS,ioos:station:WAVCIS:CSI16:1,2011-08-01T22:00:00Z,29.4012,-89.0355,1012.29,11111222 
WAVCIS,ioos:station:WAVCIS:CSI16:1,2011-08-01T23:00:00Z,29.4012,-89.0355,1012.08,11111222 
WAVCIS,ioos:station:WAVCIS:CSI16:1,2011-08-02T00:00:00Z,29.4012,-89.0355,1012.2,11111222 
WAVCIS,ioos:station:WAVCIS:CSI16:1,2011-08-02T01:00:00Z,29.4012,-89.0355,1011.91,11111222 
WAVCIS,ioos:station:WAVCIS:CSI16:1,2011-08-02T02:00:00Z,29.4012,-89.0355,1011.76,11111222 
WAVCIS,ioos:station:WAVCIS:CSI16:1,2011-08-02T03:00:00Z,29.4012,-89.0355,1011.75,11111222 
WAVCIS,ioos:station:WAVCIS:CSI16:1,2011-08-02T04:00:00Z,29.4012,-89.0355,1012.04,11111222 
WAVCIS,ioos:station:WAVCIS:CSI16:1,2011-08-02T05:00:00Z,29.4012,-89.0355,1012.32,11111222 
WAVCIS,ioos:station:WAVCIS:CSI16:1,2011-08-02T06:00:00Z,29.4012,-89.0355,1012.03,11111222 
WAVCIS,ioos:station:WAVCIS:CSI16:1,2011-08-02T07:00:00Z,29.4012,-89.0355,1011.49,11111222 
WAVCIS,ioos:station:WAVCIS:CSI16:1,2011-08-02T08:00:00Z,29.4012,-89.0355,1011.03,11111222 
WAVCIS,ioos:station:WAVCIS:CSI16:1,2011-08-02T09:00:00Z,29.4012,-89.0355,1010.75,11111222 
WAVCIS,ioos:station:WAVCIS:CSI16:1,2011-08-02T10:00:00Z,29.4012,-89.0355,1010.57,11111222 
WAVCIS,ioos:station:WAVCIS:CSI16:1,2011-08-02T11:00:00Z,29.4012,-89.0355,1010.79,11111222 
WAVCIS,ioos:station:WAVCIS:CSI16:1,2011-08-02T12:00:00Z,29.4012,-89.0355,1011.31,11111222 
WAVCIS,ioos:station:WAVCIS:CSI16:1,2011-08-02T13:00:00Z,29.4012,-89.0355,1011.37,11111222 
WAVCIS,ioos:station:WAVCIS:CSI16:1,2011-08-02T14:00:00Z,29.4012,-89.0355,1011.92,11111222 
WAVCIS,ioos:station:WAVCIS:CSI16:1,2011-08-02T15:00:00Z,29.4012,-89.0355,1012.37,11111222 
WAVCIS,ioos:station:WAVCIS:CSI16:1,2011-08-02T16:00:00Z,29.4012,-89.0355,1013.13,11111222 
WAVCIS,ioos:station:WAVCIS:CSI16:1,2011-08-02T17:00:00Z,29.4012,-89.0355,1013.24,11111222 
WAVCIS,ioos:station:WAVCIS:CSI16:1,2011-08-02T18:00:00Z,29.4012,-89.0355,1013.33,11111222 
WAVCIS,ioos:station:WAVCIS:CSI16:1,2011-08-02T19:00:00Z,29.4012,-89.0355,1012.36,11111222 
WAVCIS,ioos:station:WAVCIS:CSI16:1,2011-08-02T20:00:00Z,29.4012,-89.0355,1011.41,11111222 
WAVCIS,ioos:station:WAVCIS:CSI16:1,2011-08-02T21:00:00Z,29.4012,-89.0355,1011.13,11111222 
WAVCIS,ioos:station:WAVCIS:CSI16:1,2011-08-02T22:00:00Z,29.4012,-89.0355,1010.37,11111222 
WAVCIS,ioos:station:WAVCIS:CSI16:1,2011-08-02T23:00:00Z,29.4012,-89.0355,1010.09,11111222 
WAVCIS,ioos:station:WAVCIS:CSI16:1,2011-08-03T00:00:00Z,29.4012,-89.0355,1009.77,11111222 
WAVCIS,ioos:station:WAVCIS:CSI16:1,2011-08-03T01:00:00Z,29.4012,-89.0355,1009.8,11111222 
WAVCIS,ioos:station:WAVCIS:CSI16:1,2011-08-03T02:00:00Z,29.4012,-89.0355,1009.81,11111222 
WAVCIS,ioos:station:WAVCIS:CSI16:1,2011-08-03T03:00:00Z,29.4012,-89.0355,1010.27,11111222 
WAVCIS,ioos:station:WAVCIS:CSI16:1,2011-08-03T04:00:00Z,29.4012,-89.0355,1010.44,11111222 
WAVCIS,ioos:station:WAVCIS:CSI16:1,2011-08-03T05:00:00Z,29.4012,-89.0355,1010.68,11111222 
WAVCIS,ioos:station:WAVCIS:CSI16:1,2011-08-03T06:00:00Z,29.4012,-89.0355,1010.11,11111222 
WAVCIS,ioos:station:WAVCIS:CSI16:1,2011-08-03T07:00:00Z,29.4012,-89.0355,1009.64,11111222 
WAVCIS,ioos:station:WAVCIS:CSI16:1,2011-08-03T08:00:00Z,29.4012,-89.0355,1009.38,11111222 
WAVCIS,ioos:station:WAVCIS:CSI16:1,2011-08-03T09:00:00Z,29.4012,-89.0355,1009.51,11111222 
WAVCIS,ioos:station:WAVCIS:CSI16:1,2011-08-03T10:00:00Z,29.4012,-89.0355,1009.44,11111222 
WAVCIS,ioos:station:WAVCIS:CSI16:1,2011-08-03T11:00:00Z,29.4012,-89.0355,1009.93,11111222 
WAVCIS,ioos:station:WAVCIS:CSI16:1,2011-08-03T12:00:00Z,29.4012,-89.0355,1010.37,11111222 
WAVCIS,ioos:station:WAVCIS:CSI16:1,2011-08-03T13:00:00Z,29.4012,-89.0355,1010.95,11111222 
WAVCIS,ioos:station:WAVCIS:CSI16:1,2011-08-03T14:00:00Z,29.4012,-89.0355,1011.29,11111222 
WAVCIS,ioos:station:WAVCIS:CSI16:1,2011-08-03T15:00:00Z,29.4012,-89.0355,1011.36,11111222 
WAVCIS,ioos:station:WAVCIS:CSI16:1,2011-08-03T16:00:00Z,29.4012,-89.0355,1012.11,11111222 
WAVCIS,ioos:station:WAVCIS:CSI16:1,2011-08-03T17:00:00Z,29.4012,-89.0355,1011.77,11111222 
WAVCIS,ioos:station:WAVCIS:CSI16:1,2011-08-03T18:00:00Z,29.4012,-89.0355,1011.65,11111222 
WAVCIS,ioos:station:WAVCIS:CSI16:1,2011-08-03T19:00:00Z,29.4012,-89.0355,1011.34,11111222 
WAVCIS,ioos:station:WAVCIS:CSI16:1,2011-08-03T20:00:00Z,29.4012,-89.0355,1010.59,11111222 
WAVCIS,ioos:station:WAVCIS:CSI16:1,2011-08-03T21:00:00Z,29.4012,-89.0355,1009.82,11111222 
WAVCIS,ioos:station:WAVCIS:CSI16:1,2011-08-03T22:00:00Z,29.4012,-89.0355,1009.7,11111222 
WAVCIS,ioos:station:WAVCIS:CSI16:1,2011-08-03T23:00:00Z,29.4012,-89.0355,1009.4,11111222 
WAVCIS,ioos:station:WAVCIS:CSI16:1,2011-08-04T00:00:00Z,29.4012,-89.0355,1009.05,11111222 
WAVCIS,ioos:station:WAVCIS:CSI16:1,2011-08-04T01:00:00Z,29.4012,-89.0355,1008.71,11111222 
WAVCIS,ioos:station:WAVCIS:CSI16:1,2011-08-04T02:00:00Z,29.4012,-89.0355,1009.09,11111222 
WAVCIS,ioos:station:WAVCIS:CSI16:1,2011-08-04T03:00:00Z,29.4012,-89.0355,1009.74,11111222 
WAVCIS,ioos:station:WAVCIS:CSI16:1,2011-08-04T04:00:00Z,29.4012,-89.0355,1009.73,11111222 
WAVCIS,ioos:station:WAVCIS:CSI16:1,2011-08-04T05:00:00Z,29.4012,-89.0355,1009.46,11111222 
WAVCIS,ioos:station:WAVCIS:CSI16:1,2011-08-04T06:00:00Z,29.4012,-89.0355,1009.44,11111222 
WAVCIS,ioos:station:WAVCIS:CSI16:1,2011-08-04T07:00:00Z,29.4012,-89.0355,1008.98,11111222 
WAVCIS,ioos:station:WAVCIS:CSI16:1,2011-08-04T08:00:00Z,29.4012,-89.0355,1008.9,11111222 
WAVCIS,ioos:station:WAVCIS:CSI16:1,2011-08-04T09:00:00Z,29.4012,-89.0355,1009.41,11111222 
WAVCIS,ioos:station:WAVCIS:CSI16:1,2011-08-04T10:00:00Z,29.4012,-89.0355,1009.84,11111222 
WAVCIS,ioos:station:WAVCIS:CSI16:1,2011-08-04T11:00:00Z,29.4012,-89.0355,1010.1,11111222 
WAVCIS,ioos:station:WAVCIS:CSI16:1,2011-08-04T12:00:00Z,29.4012,-89.0355,1010.76,11111222 
WAVCIS,ioos:station:WAVCIS:CSI16:1,2011-08-04T13:00:00Z,29.4012,-89.0355,1011.81,11111222 
WAVCIS,ioos:station:WAVCIS:CSI16:1,2011-08-04T14:00:00Z,29.4012,-89.0355,1012.5,11111222 
WAVCIS,ioos:station:WAVCIS:CSI16:1,2011-08-04T15:00:00Z,29.4012,-89.0355,1012.67,11111222 
WAVCIS,ioos:station:WAVCIS:CSI16:1,2011-08-04T16:00:00Z,29.4012,-89.0355,1013.11,11111222 
WAVCIS,ioos:station:WAVCIS:CSI16:1,2011-08-04T17:00:00Z,29.4012,-89.0355,1013.1,11111222 
WAVCIS,ioos:station:WAVCIS:CSI16:1,2011-08-04T18:00:00Z,29.4012,-89.0355,1012.99,11111222 
WAVCIS,ioos:station:WAVCIS:CSI16:1,2011-08-04T19:00:00Z,29.4012,-89.0355,1012.38,11111222 
WAVCIS,ioos:station:WAVCIS:CSI16:1,2011-08-04T20:00:00Z,29.4012,-89.0355,1011.54,11111222 
WAVCIS,ioos:station:WAVCIS:CSI16:1,2011-08-04T21:00:00Z,29.4012,-89.0355,1011.28,11111222 
WAVCIS,ioos:station:WAVCIS:CSI16:1,2011-08-04T22:00:00Z,29.4012,-89.0355,1011.34,11111222 
WAVCIS,ioos:station:WAVCIS:CSI16:1,2011-08-04T23:00:00Z,29.4012,-89.0355,1010.99,11111222 
WAVCIS,ioos:station:WAVCIS:CSI16:1,2011-08-05T00:00:00Z,29.4012,-89.0355,1010.59,11111222 
WAVCIS,ioos:station:WAVCIS:CSI16:1,2011-08-05T01:00:00Z,29.4012,-89.0355,1010.6,11111222 
WAVCIS,ioos:station:WAVCIS:CSI16:1,2011-08-05T02:00:00Z,29.4012,-89.0355,1011.45,11111222 
WAVCIS,ioos:station:WAVCIS:CSI16:1,2011-08-05T03:00:00Z,29.4012,-89.0355,1012.11,11111222 
WAVCIS,ioos:station:WAVCIS:CSI16:1,2011-08-05T04:00:00Z,29.4012,-89.0355,1012.68,11111222 
WAVCIS,ioos:station:WAVCIS:CSI16:1,2011-08-05T05:00:00Z,29.4012,-89.0355,1013.16,11111222 
WAVCIS,ioos:station:WAVCIS:CSI16:1,2011-08-05T06:00:00Z,29.4012,-89.0355,1013.0,11111222 
WAVCIS,ioos:station:WAVCIS:CSI16:1,2011-08-05T07:00:00Z,29.4012,-89.0355,1011.6,11111222 
WAVCIS,ioos:station:WAVCIS:CSI16:1,2011-08-05T08:00:00Z,29.4012,-89.0355,1009.64,11111222 
WAVCIS,ioos:station:WAVCIS:CSI16:1,2011-08-05T09:00:00Z,29.4012,-89.0355,1009.25,11111222 
WAVCIS,ioos:station:WAVCIS:CSI16:1,2011-08-05T10:00:00Z,29.4012,-89.0355,1008.77,11111222 
WAVCIS,ioos:station:WAVCIS:CSI16:1,2011-08-05T11:00:00Z,29.4012,-89.0355,1010.29,11111222 
WAVCIS,ioos:station:WAVCIS:CSI16:1,2011-08-05T12:00:00Z,29.4012,-89.0355,1011.2,11111222 
WAVCIS,ioos:station:WAVCIS:CSI16:1,2011-08-05T13:00:00Z,29.4012,-89.0355,1011.81,11111222 
WAVCIS,ioos:station:WAVCIS:CSI16:1,2011-08-05T14:00:00Z,29.4012,-89.0355,1012.49,11111222 
WAVCIS,ioos:station:WAVCIS:CSI16:1,2011-08-05T15:00:00Z,29.4012,-89.0355,1013.0,11111222 
WAVCIS,ioos:station:WAVCIS:CSI16:1,2011-08-05T16:00:00Z,29.4012,-89.0355,1013.58,11111222 
WAVCIS,ioos:station:WAVCIS:CSI16:1,2011-08-05T17:00:00Z,29.4012,-89.0355,1013.63,11111222 
WAVCIS,ioos:station:WAVCIS:CSI16:1,2011-08-05T18:00:00Z,29.4012,-89.0355,1013.39,11111222 
WAVCIS,ioos:station:WAVCIS:CSI16:1,2011-08-05T19:00:00Z,29.4012,-89.0355,1013.5,11111222 
WAVCIS,ioos:station:WAVCIS:CSI16:1,2011-08-05T20:00:00Z,29.4012,-89.0355,1013.11,11111222 
WAVCIS,ioos:station:WAVCIS:CSI16:1,2011-08-05T21:00:00Z,29.4012,-89.0355,1011.91,11111222 
WAVCIS,ioos:station:WAVCIS:CSI16:1,2011-08-05T22:00:00Z,29.4012,-89.0355,1011.61,11111222 
WAVCIS,ioos:station:WAVCIS:CSI16:1,2011-08-05T23:00:00Z,29.4012,-89.0355,1011.52,11111222 
WAVCIS,ioos:station:WAVCIS:CSI16:1,2011-08-06T00:00:00Z,29.4012,-89.0355,1011.63,11111222 
WAVCIS,ioos:station:WAVCIS:CSI16:1,2011-08-06T01:00:00Z,29.4012,-89.0355,1012.19,11111222 
WAVCIS,ioos:station:WAVCIS:CSI16:1,2011-08-06T02:00:00Z,29.4012,-89.0355,1012.24,11111222 
WAVCIS,ioos:station:WAVCIS:CSI16:1,2011-08-06T03:00:00Z,29.4012,-89.0355,1012.45,11111222 
WAVCIS,ioos:station:WAVCIS:CSI16:1,2011-08-06T04:00:00Z,29.4012,-89.0355,1012.62,11111222 
WAVCIS,ioos:station:WAVCIS:CSI16:1,2011-08-06T05:00:00Z,29.4012,-89.0355,1012.25,11111222 
WAVCIS,ioos:station:WAVCIS:CSI16:1,2011-08-06T06:00:00Z,29.4012,-89.0355,1012.05,11111222 
WAVCIS,ioos:station:WAVCIS:CSI16:1,2011-08-06T07:00:00Z,29.4012,-89.0355,1011.53,11111222 
WAVCIS,ioos:station:WAVCIS:CSI16:1,2011-08-06T08:00:00Z,29.4012,-89.0355,1011.27,11111222 
WAVCIS,ioos:station:WAVCIS:CSI16:1,2011-08-06T09:00:00Z,29.4012,-89.0355,1011.2,11111222 
WAVCIS,ioos:station:WAVCIS:CSI16:1,2011-08-06T10:00:00Z,29.4012,-89.0355,1011.44,11111222 
WAVCIS,ioos:station:WAVCIS:CSI16:1,2011-08-06T11:00:00Z,29.4012,-89.0355,1011.93,11111222 
WAVCIS,ioos:station:WAVCIS:CSI16:1,2011-08-06T12:00:00Z,29.4012,-89.0355,1012.35,11111222 
WAVCIS,ioos:station:WAVCIS:CSI16:1,2011-08-06T13:00:00Z,29.4012,-89.0355,1012.62,11111222 
WAVCIS,ioos:station:WAVCIS:CSI16:1,2011-08-06T14:00:00Z,29.4012,-89.0355,1013.22,11111222 
WAVCIS,ioos:station:WAVCIS:CSI16:1,2011-08-06T15:00:00Z,29.4012,-89.0355,1014.01,11111222 
WAVCIS,ioos:station:WAVCIS:CSI16:1,2011-08-06T16:00:00Z,29.4012,-89.0355,1014.68,11111222 
WAVCIS,ioos:station:WAVCIS:CSI16:1,2011-08-06T17:00:00Z,29.4012,-89.0355,1014.76,11111222 
WAVCIS,ioos:station:WAVCIS:CSI16:1,2011-08-06T18:00:00Z,29.4012,-89.0355,1014.58,11111222 
WAVCIS,ioos:station:WAVCIS:CSI16:1,2011-08-06T19:00:00Z,29.4012,-89.0355,1014.2,11111222 
WAVCIS,ioos:station:WAVCIS:CSI16:1,2011-08-06T20:00:00Z,29.4012,-89.0355,1013.08,11111222 
WAVCIS,ioos:station:WAVCIS:CSI16:1,2011-08-06T21:00:00Z,29.4012,-89.0355,1012.63,11111222 
WAVCIS,ioos:station:WAVCIS:CSI16:1,2011-08-06T22:00:00Z,29.4012,-89.0355,1012.3,11111222 
WAVCIS,ioos:station:WAVCIS:CSI16:1,2011-08-06T23:00:00Z,29.4012,-89.0355,1011.89,11111222 
WAVCIS,ioos:station:WAVCIS:CSI16:1,2011-08-07T00:00:00Z,29.4012,-89.0355,1011.78,11111222 
WAVCIS,ioos:station:WAVCIS:CSI16:1,2011-08-07T01:00:00Z,29.4012,-89.0355,1012.01,11111222 
WAVCIS,ioos:station:WAVCIS:CSI16:1,2011-08-07T02:00:00Z,29.4012,-89.0355,1012.73,11111222 
WAVCIS,ioos:station:WAVCIS:CSI16:1,2011-08-07T03:00:00Z,29.4012,-89.0355,1012.8,11111222 
WAVCIS,ioos:station:WAVCIS:CSI16:1,2011-08-07T04:00:00Z,29.4012,-89.0355,1012.65,11111222 
WAVCIS,ioos:station:WAVCIS:CSI16:1,2011-08-07T05:00:00Z,29.4012,-89.0355,1012.59,11111222 
WAVCIS,ioos:station:WAVCIS:CSI16:1,2011-08-07T06:00:00Z,29.4012,-89.0355,1012.21,11111222 
WAVCIS,ioos:station:WAVCIS:CSI16:1,2011-08-07T07:00:00Z,29.4012,-89.0355,1011.34,11111222 
WAVCIS,ioos:station:WAVCIS:CSI16:1,2011-08-07T08:00:00Z,29.4012,-89.0355,1011.12,11111222 
WAVCIS,ioos:station:WAVCIS:CSI16:1,2011-08-07T09:00:00Z,29.4012,-89.0355,1011.18,11111222 
WAVCIS,ioos:station:WAVCIS:CSI16:1,2011-08-07T10:00:00Z,29.4012,-89.0355,1011.37,11111222 
WAVCIS,ioos:station:WAVCIS:CSI16:1,2011-08-07T11:00:00Z,29.4012,-89.0355,1011.58,11111222 
WAVCIS,ioos:station:WAVCIS:CSI16:1,2011-08-07T12:00:00Z,29.4012,-89.0355,1012.24,11111222 
WAVCIS,ioos:station:WAVCIS:CSI16:1,2011-08-07T13:00:00Z,29.4012,-89.0355,1012.51,11111222 
WAVCIS,ioos:station:WAVCIS:CSI16:1,2011-08-07T14:00:00Z,29.4012,-89.0355,1013.23,11111222 
WAVCIS,ioos:station:WAVCIS:CSI16:1,2011-08-07T15:00:00Z,29.4012,-89.0355,1013.49,11111222 
WAVCIS,ioos:station:WAVCIS:CSI16:1,2011-08-07T16:00:00Z,29.4012,-89.0355,1013.92,11111222 
WAVCIS,ioos:station:WAVCIS:CSI16:1,2011-08-07T17:00:00Z,29.4012,-89.0355,1013.81,11111222 
WAVCIS,ioos:station:WAVCIS:CSI16:1,2011-08-07T18:00:00Z,29.4012,-89.0355,1013.77,11111222 
WAVCIS,ioos:station:WAVCIS:CSI16:1,2011-08-07T19:00:00Z,29.4012,-89.0355,1013.15,11111222 
WAVCIS,ioos:station:WAVCIS:CSI16:1,2011-08-07T20:00:00Z,29.4012,-89.0355,1012.72,11111222 
WAVCIS,ioos:station:WAVCIS:CSI16:1,2011-08-07T21:00:00Z,29.4012,-89.0355,1012.1,11111222 
WAVCIS,ioos:station:WAVCIS:CSI16:1,2011-08-07T22:00:00Z,29.4012,-89.0355,1011.83,11111222 
WAVCIS,ioos:station:WAVCIS:CSI16:1,2011-08-07T23:00:00Z,29.4012,-89.0355,1011.71,11111222 
WAVCIS,ioos:station:WAVCIS:CSI16:1,2011-08-08T00:00:00Z,29.4012,-89.0355,1010.84,11111222 
WAVCIS,ioos:station:WAVCIS:CSI16:1,2011-08-08T01:00:00Z,29.4012,-89.0355,1010.99,11111222 
WAVCIS,ioos:station:WAVCIS:CSI16:1,2011-08-08T02:00:00Z,29.4012,-89.0355,1010.95,11111222 
WAVCIS,ioos:station:WAVCIS:CSI16:1,2011-08-08T03:00:00Z,29.4012,-89.0355,1010.9,11111222 
WAVCIS,ioos:station:WAVCIS:CSI16:1,2011-08-08T04:00:00Z,29.4012,-89.0355,1011.21,11111222 
WAVCIS,ioos:station:WAVCIS:CSI16:1,2011-08-08T05:00:00Z,29.4012,-89.0355,1011.49,11111222 
WAVCIS,ioos:station:WAVCIS:CSI16:1,2011-08-08T06:00:00Z,29.4012,-89.0355,1011.01,11111222 
WAVCIS,ioos:station:WAVCIS:CSI16:1,2011-08-08T07:00:00Z,29.4012,-89.0355,1010.15,11111222 
WAVCIS,ioos:station:WAVCIS:CSI16:1,2011-08-08T08:00:00Z,29.4012,-89.0355,1009.86,11111222 
WAVCIS,ioos:station:WAVCIS:CSI16:1,2011-08-08T09:00:00Z,29.4012,-89.0355,1010.04,11111222 
WAVCIS,ioos:station:WAVCIS:CSI16:1,2011-08-08T10:00:00Z,29.4012,-89.0355,1010.08,11111222 
WAVCIS,ioos:station:WAVCIS:CSI16:1,2011-08-08T11:00:00Z,29.4012,-89.0355,1010.82,11111222 
WAVCIS,ioos:station:WAVCIS:CSI16:1,2011-08-08T12:00:00Z,29.4012,-89.0355,1011.09,11111222 
WAVCIS,ioos:station:WAVCIS:CSI16:1,2011-08-08T13:00:00Z,29.4012,-89.0355,1011.23,11111222 
WAVCIS,ioos:station:WAVCIS:CSI16:1,2011-08-08T14:00:00Z,29.4012,-89.0355,1012.03,11111222 
WAVCIS,ioos:station:WAVCIS:CSI16:1,2011-08-08T15:00:00Z,29.4012,-89.0355,1012.45,11111222 
WAVCIS,ioos:station:WAVCIS:CSI16:1,2011-08-08T16:00:00Z,29.4012,-89.0355,1012.92,11111222 
WAVCIS,ioos:station:WAVCIS:CSI16:1,2011-08-08T17:00:00Z,29.4012,-89.0355,1012.09,11111222 
WAVCIS,ioos:station:WAVCIS:CSI16:1,2011-08-08T18:00:00Z,29.4012,-89.0355,1010.62,11111222 
WAVCIS,ioos:station:WAVCIS:CSI16:1,2011-08-08T19:00:00Z,29.4012,-89.0355,1010.37,11111222 
WAVCIS,ioos:station:WAVCIS:CSI16:1,2011-08-08T20:00:00Z,29.4012,-89.0355,1010.09,11111222 
WAVCIS,ioos:station:WAVCIS:CSI16:1,2011-08-08T21:00:00Z,29.4012,-89.0355,1009.52,11111222 
WAVCIS,ioos:station:WAVCIS:CSI16:1,2011-08-08T22:00:00Z,29.4012,-89.0355,1009.56,11111222 
WAVCIS,ioos:station:WAVCIS:CSI16:1,2011-08-08T23:00:00Z,29.4012,-89.0355,1009.81,11111222 
WAVCIS,ioos:station:WAVCIS:CSI16:1,2011-08-09T00:00:00Z,29.4012,-89.0355,1009.61,11111222 
WAVCIS,ioos:station:WAVCIS:CSI16:1,2011-08-09T01:00:00Z,29.4012,-89.0355,1010.14,11111222 
WAVCIS,ioos:station:WAVCIS:CSI16:1,2011-08-09T02:00:00Z,29.4012,-89.0355,1009.77,11111222 
WAVCIS,ioos:station:WAVCIS:CSI16:1,2011-08-09T03:00:00Z,29.4012,-89.0355,1009.79,11111222 
WAVCIS,ioos:station:WAVCIS:CSI16:1,2011-08-09T04:00:00Z,29.4012,-89.0355,1009.71,11111222 
WAVCIS,ioos:station:WAVCIS:CSI16:1,2011-08-09T05:00:00Z,29.4012,-89.0355,1009.77,11111222 
WAVCIS,ioos:station:WAVCIS:CSI16:1,2011-08-09T06:00:00Z,29.4012,-89.0355,1009.9,11111222 
WAVCIS,ioos:station:WAVCIS:CSI16:1,2011-08-09T07:00:00Z,29.4012,-89.0355,1009.57,11111222 
WAVCIS,ioos:station:WAVCIS:CSI16:1,2011-08-09T08:00:00Z,29.4012,-89.0355,1009.03,11111222 
WAVCIS,ioos:station:WAVCIS:CSI16:1,2011-08-09T09:00:00Z,29.4012,-89.0355,1008.93,11111222 
WAVCIS,ioos:station:WAVCIS:CSI16:1,2011-08-09T10:00:00Z,29.4012,-89.0355,1008.89,11111222 
WAVCIS,ioos:station:WAVCIS:CSI16:1,2011-08-09T11:00:00Z,29.4012,-89.0355,1009.42,11111222 
WAVCIS,ioos:station:WAVCIS:CSI16:1,2011-08-09T12:00:00Z,29.4012,-89.0355,1009.57,11111222 
WAVCIS,ioos:station:WAVCIS:CSI16:1,2011-08-09T13:00:00Z,29.4012,-89.0355,1010.0,11111222 
WAVCIS,ioos:station:WAVCIS:CSI16:1,2011-08-09T14:00:00Z,29.4012,-89.0355,1010.58,11111222 
WAVCIS,ioos:station:WAVCIS:CSI16:1,2011-08-09T15:00:00Z,29.4012,-89.0355,1011.08,11111222 
WAVCIS,ioos:station:WAVCIS:CSI16:1,2011-08-09T16:00:00Z,29.4012,-89.0355,1011.36,11111222 
WAVCIS,ioos:station:WAVCIS:CSI16:1,2011-08-09T17:00:00Z,29.4012,-89.0355,1011.08,11111222 
WAVCIS,ioos:station:WAVCIS:CSI16:1,2011-08-09T18:00:00Z,29.4012,-89.0355,1010.49,11111222 
WAVCIS,ioos:station:WAVCIS:CSI16:1,2011-08-09T19:00:00Z,29.4012,-89.0355,1010.0,11111222 
WAVCIS,ioos:station:WAVCIS:CSI16:1,2011-08-09T20:00:00Z,29.4012,-89.0355,1009.18,11111222 
WAVCIS,ioos:station:WAVCIS:CSI16:1,2011-08-09T21:00:00Z,29.4012,-89.0355,1008.44,11111222 
WAVCIS,ioos:station:WAVCIS:CSI16:1,2011-08-09T22:00:00Z,29.4012,-89.0355,1007.89,11111222 
WAVCIS,ioos:station:WAVCIS:CSI16:1,2011-08-09T23:00:00Z,29.4012,-89.0355,1007.93,11111222 
WAVCIS,ioos:station:WAVCIS:CSI16:1,2011-08-10T00:00:00Z,29.4012,-89.0355,1008.44,11111222 
WAVCIS,ioos:station:WAVCIS:CSI16:1,2011-08-10T01:00:00Z,29.4012,-89.0355,1009.06,11111222 
WAVCIS,ioos:station:WAVCIS:CSI16:1,2011-08-10T02:00:00Z,29.4012,-89.0355,1009.42,11111222 
WAVCIS,ioos:station:WAVCIS:CSI16:1,2011-08-10T03:00:00Z,29.4012,-89.0355,1010.27,11111222 
WAVCIS,ioos:station:WAVCIS:CSI16:1,2011-08-10T04:00:00Z,29.4012,-89.0355,1009.7,11111222 
WAVCIS,ioos:station:WAVCIS:CSI16:1,2011-08-10T05:00:00Z,29.4012,-89.0355,1009.42,11111222 
WAVCIS,ioos:station:WAVCIS:CSI16:1,2011-08-10T06:00:00Z,29.4012,-89.0355,1008.57,11111222 
WAVCIS,ioos:station:WAVCIS:CSI16:1,2011-08-10T07:00:00Z,29.4012,-89.0355,1008.64,11111222 
WAVCIS,ioos:station:WAVCIS:CSI16:1,2011-08-10T08:00:00Z,29.4012,-89.0355,1009.62,11111222 
WAVCIS,ioos:station:WAVCIS:CSI16:1,2011-08-10T09:00:00Z,29.4012,-89.0355,1009.4,11111222 
WAVCIS,ioos:station:WAVCIS:CSI16:1,2011-08-10T10:00:00Z,29.4012,-89.0355,1009.5,11111222 
WAVCIS,ioos:station:WAVCIS:CSI16:1,2011-08-10T11:00:00Z,29.4012,-89.0355,1009.39,11111222 
WAVCIS,ioos:station:WAVCIS:CSI16:1,2011-08-10T12:00:00Z,29.4012,-89.0355,1009.67,11111222 
WAVCIS,ioos:station:WAVCIS:CSI16:1,2011-08-10T13:00:00Z,29.4012,-89.0355,1010.62,11111222 
WAVCIS,ioos:station:WAVCIS:CSI16:1,2011-08-10T14:00:00Z,29.4012,-89.0355,1010.62,11111222 
WAVCIS,ioos:station:WAVCIS:CSI16:1,2011-08-10T15:00:00Z,29.4012,-89.0355,1011.01,11111222 
WAVCIS,ioos:station:WAVCIS:CSI16:1,2011-08-10T16:00:00Z,29.4012,-89.0355,1011.39,11111222 
WAVCIS,ioos:station:WAVCIS:CSI16:1,2011-08-10T17:00:00Z,29.4012,-89.0355,1011.11,11111222 
WAVCIS,ioos:station:WAVCIS:CSI16:1,2011-08-10T18:00:00Z,29.4012,-89.0355,1011.1,11111222 
WAVCIS,ioos:station:WAVCIS:CSI16:1,2011-08-10T19:00:00Z,29.4012,-89.0355,1011.02,11111222 
WAVCIS,ioos:station:WAVCIS:CSI16:1,2011-08-10T20:00:00Z,29.4012,-89.0355,1010.35,11111222 
WAVCIS,ioos:station:WAVCIS:CSI16:1,2011-08-10T21:00:00Z,29.4012,-89.0355,1009.57,11111222 
WAVCIS,ioos:station:WAVCIS:CSI16:1,2011-08-10T22:00:00Z,29.4012,-89.0355,1009.31,11111222 
WAVCIS,ioos:station:WAVCIS:CSI16:1,2011-08-10T23:00:00Z,29.4012,-89.0355,1008.62,11111222 
WAVCIS,ioos:station:WAVCIS:CSI16:1,2011-08-11T00:00:00Z,29.4012,-89.0355,1008.43,11111222 
WAVCIS,ioos:station:WAVCIS:CSI16:1,2011-08-11T01:00:00Z,29.4012,-89.0355,1009.07,11111222 
WAVCIS,ioos:station:WAVCIS:CSI16:1,2011-08-11T02:00:00Z,29.4012,-89.0355,1009.42,11111222 
WAVCIS,ioos:station:WAVCIS:CSI16:1,2011-08-11T03:00:00Z,29.4012,-89.0355,1009.9,11111222 
WAVCIS,ioos:station:WAVCIS:CSI16:1,2011-08-11T04:00:00Z,29.4012,-89.0355,1010.21,11111222 
WAVCIS,ioos:station:WAVCIS:CSI16:1,2011-08-11T05:00:00Z,29.4012,-89.0355,1009.97,11111222 
WAVCIS,ioos:station:WAVCIS:CSI16:1,2011-08-11T06:00:00Z,29.4012,-89.0355,1009.47,11111222 
WAVCIS,ioos:station:WAVCIS:CSI16:1,2011-08-11T07:00:00Z,29.4012,-89.0355,1009.31,11111222 
WAVCIS,ioos:station:WAVCIS:CSI16:1,2011-08-11T08:00:00Z,29.4012,-89.0355,1009.3,11111222 
WAVCIS,ioos:station:WAVCIS:CSI16:1,2011-08-11T09:00:00Z,29.4012,-89.0355,1009.19,11111222 
WAVCIS,ioos:station:WAVCIS:CSI16:1,2011-08-11T10:00:00Z,29.4012,-89.0355,1009.35,11111222 
WAVCIS,ioos:station:WAVCIS:CSI16:1,2011-08-11T11:00:00Z,29.4012,-89.0355,1009.55,11111222 
WAVCIS,ioos:station:WAVCIS:CSI16:1,2011-08-11T12:00:00Z,29.4012,-89.0355,1010.02,11111222 
WAVCIS,ioos:station:WAVCIS:CSI16:1,2011-08-11T13:00:00Z,29.4012,-89.0355,1010.52,11111222 
WAVCIS,ioos:station:WAVCIS:CSI16:1,2011-08-11T14:00:00Z,29.4012,-89.0355,1011.68,11111222 
WAVCIS,ioos:station:WAVCIS:CSI16:1,2011-08-11T15:00:00Z,29.4012,-89.0355,1012.67,11111222 
WAVCIS,ioos:station:WAVCIS:CSI16:1,2011-08-11T16:00:00Z,29.4012,-89.0355,1012.95,11111222 
WAVCIS,ioos:station:WAVCIS:CSI16:1,2011-08-11T17:00:00Z,29.4012,-89.0355,1013.02,11111222 
WAVCIS,ioos:station:WAVCIS:CSI16:1,2011-08-11T18:00:00Z,29.4012,-89.0355,1012.68,11111222 
WAVCIS,ioos:station:WAVCIS:CSI16:1,2011-08-11T19:00:00Z,29.4012,-89.0355,1011.91,11111222 
WAVCIS,ioos:station:WAVCIS:CSI16:1,2011-08-11T20:00:00Z,29.4012,-89.0355,1011.48,11111222 
WAVCIS,ioos:station:WAVCIS:CSI16:1,2011-08-11T21:00:00Z,29.4012,-89.0355,1011.11,11111222 
WAVCIS,ioos:station:WAVCIS:CSI16:1,2011-08-11T22:00:00Z,29.4012,-89.0355,1010.4,11111222 